Hourly Data Report for April 05, 2021

TORONTO CITY
ONTARIO
Current Station Operator: ECCC - MSC

43°40'00.000" N
79°24'00.000" W
112.50 m
6158355
71508
XTO

Download Data

Hourly Data (April 2021)
Hourly Data Report for April 5, 2021
TIME
LST
Temp Definition
°C
Dew Point Definition
°C
Rel Hum Definition
%
Precip. Amount Definition
mm

Wind Dir Definition
10's deg

Wind Spd Definition
km/h
Visibility Definition
km
Stn Press Definition
kPa
Hmdx Definition


Wind Chill Definition


Weather Definition


00:00 8.1 -3.3 44 0.0       100.77     LegendNANA
01:00 8.5 -4.2 40 0.0       100.77     LegendNANA
02:00 8.2 -4.8 40 0.0       100.75     LegendNANA
03:00 8.2 -4.8 40 0.0       100.76     LegendNANA
04:00 7.8 -4.4 42 0.0       100.80     LegendNANA
05:00 7.3 -4.0 44 0.0       100.79     LegendNANA
06:00 7.2 -3.5 46 0.0       100.78     LegendNANA
07:00 7.7 -3.2 46 0.0       100.74     LegendNANA
08:00 9.4 -4.2 38 0.0       100.82     LegendNANA
09:00 9.6 -4.1 38 0.0       100.89     LegendNANA
10:00 10.8 -4.5 34 0.0       100.83     LegendNANA
11:00 10.8 -4.9 33 0.0       100.81     LegendNANA
12:00 11.3 -5.1 31 0.0       100.74     LegendNANA
13:00 11.4 -3.6 35 0.0       100.69     LegendNANA
14:00 11.1 -3.5 36 0.0       100.64     LegendNANA
15:00 11.0 -3.5 36 0.0       100.58     LegendNANA
16:00 12.2 -3.1 34 0.0       100.51     LegendNANA
17:00 12.3 -2.7 35 0.0       100.46     LegendNANA
18:00 9.4 -1.2 47 0.0       100.49     LegendNANA
19:00 9.4 -1.4 47 0.0       100.42     LegendNANA
20:00 9.5 -1.0 48 0.0       100.44     LegendNANA
21:00 8.9 -0.9 50 0.0       100.43     LegendNANA
22:00 9.1 0.0 53 0.0       100.41     LegendNANA
23:00 7.5 0.0 59 0.0       100.41     LegendNANA

Notes on Data Quality.

Legend

  • E = Estimated
  • M = Missing
  • NA = Not Available*
  • [empty] = Indicates an unobserved value
Date modified: